BONES11 KSLC-KHIF

Flight info

Callsign BONES11
Flight time 0h 8m
Altitude VFR
Route
Aircraft F18/L-DOV/C

Departure

Time 2026-05-07 10:02
Airport Salt Lake City International Airport (KSLC)

Arrival

Time 2026-05-07 10:10
Airport Hill Air Force Base (KHIF)
Time Latitude Longitude Altitude Speed Heading
2026-05-07 09:54 40.77308 -111.96184 4255 ft 23 kts 152°
2026-05-07 09:54 40.77307 -111.96065 4255 ft 14 kts
2026-05-07 09:54 40.77430 -111.96065 4255 ft 24 kts
2026-05-07 09:54 40.77627 -111.96065 4256 ft 33 kts
2026-05-07 09:55 40.77860 -111.96031 4255 ft 33 kts 11°
2026-05-07 09:55 40.78089 -111.96008 4255 ft 45 kts
2026-05-07 09:55 40.78493 -111.96006 4227 ft 58 kts
2026-05-07 09:55 40.78886 -111.96004 4227 ft 55 kts
2026-05-07 09:56 40.79256 -111.96006 4227 ft 51 kts 359°
2026-05-07 09:56 40.79538 -111.96002 4227 ft 6 kts 360°
2026-05-07 09:56 40.79539 -111.96002 4227 ft 0 kts 360°
2026-05-07 09:59 40.79550 -111.96003 4227 ft 7 kts 359°
2026-05-07 09:59 40.79633 -111.95998 4227 ft 17 kts
2026-05-07 10:00 40.79760 -111.95999 4227 ft 18 kts 358°
2026-05-07 10:00 40.79875 -111.96003 4227 ft 16 kts 359°
2026-05-07 10:00 40.79939 -111.96039 4227 ft 0 kts 292°
2026-05-07 10:00 40.79940 -111.96053 4227 ft 6 kts 271°
2026-05-07 10:01 40.79910 -111.96123 4227 ft 10 kts 220°
2026-05-07 10:01 40.79847 -111.96172 4226 ft 14 kts 208°
2026-05-07 10:01 40.79752 -111.96209 4227 ft 14 kts 180°
2026-05-07 10:01 40.79658 -111.96209 4225 ft 15 kts 180°
2026-05-07 10:02 40.79171 -111.96210 4227 ft 132 kts 180°
2026-05-07 10:02 40.77999 -111.96208 4329 ft 201 kts 178°
2026-05-07 10:02 40.76426 -111.96176 4719 ft 247 kts 175°
2026-05-07 10:02 40.75238 -111.94925 5339 ft 224 kts 105°
2026-05-07 10:03 40.75492 -111.92931 5409 ft 227 kts 52°
2026-05-07 10:03 40.76906 -111.92181 5886 ft 239 kts
2026-05-07 10:03 40.78655 -111.92309 5792 ft 266 kts 358°
2026-05-07 10:03 40.80616 -111.92271 5723 ft 298 kts
2026-05-07 10:04 40.82717 -111.92091 5654 ft 305 kts 11°
2026-05-07 10:04 40.84711 -111.91232 5732 ft 301 kts 24°
2026-05-07 10:04 40.86603 -111.90192 5650 ft 288 kts 19°
2026-05-07 10:04 40.88498 -111.89608 5613 ft 273 kts 10°
2026-05-07 10:05 40.90349 -111.89339 5584 ft 266 kts
2026-05-07 10:05 40.92194 -111.89300 5577 ft 264 kts
2026-05-07 10:05 40.94045 -111.89293 5602 ft 271 kts
2026-05-07 10:05 40.95972 -111.89288 5635 ft 283 kts
2026-05-07 10:06 40.97994 -111.89404 5631 ft 298 kts 350°
2026-05-07 10:06 40.99317 -111.91068 5561 ft 275 kts 270°
2026-05-07 10:06 40.99113 -111.93610 5619 ft 284 kts 259°
2026-05-07 10:06 40.98798 -111.96253 5594 ft 296 kts 258°
2026-05-07 10:07 40.98456 -111.98941 5664 ft 295 kts 258°
2026-05-07 10:07 40.98127 -112.01614 5782 ft 296 kts 269°
2026-05-07 10:07 40.99128 -112.02363 5145 ft 123 kts 84°
2026-05-07 10:07 40.99633 -112.00796 4779 ft 249 kts 93°
2026-05-07 10:08 40.98665 -112.00255 5317 ft 240 kts 264°
2026-05-07 10:08 41.00275 -112.01127 5237 ft 399 kts 38°
2026-05-07 10:08 40.99593 -111.99103 5664 ft 386 kts 218°
2026-05-07 10:08 41.00036 -112.00617 5298 ft 153 kts 37°
2026-05-07 10:09 41.01654 -111.99842 4731 ft 288 kts 14°
2026-05-07 10:09 41.03579 -111.99424 4812 ft 271 kts 12°
2026-05-07 10:09 41.05111 -111.98605 4989 ft 210 kts 57°
2026-05-07 10:09 41.05946 -111.97091 5132 ft 197 kts 56°
2026-05-07 10:10 41.07047 -111.95964 5436 ft 215 kts 27°
2026-05-07 10:10 41.08570 -111.95505 5449 ft 230 kts
2026-05-07 10:10 41.10115 -111.95825 5117 ft 216 kts 340°
2026-05-07 10:10 41.11330 -111.96594 4796 ft 0 kts 336°